Welcome to the New NWS' Forecast!
Most changes are behind the scenes, but click here for differences you might notice.
Latest weather observations around

Texarkana, Texarkana Regional-Webb Field (KTXK)

Using English Units (Switch to International System of Units)
Date/ Time (CST) Wind (mph) Vis. (mi) Weather Sky Cond. Temp (°F) Rel. Humidity Wind Chill (°F) Heat Index (°F) Pressure Precip. (in)
Air Dwpt 6 hour Altimeter (inHg) Sea level (inHg) 1 hr 3 hr 6 hr
Max Min
Jan 21 09:53 S 13 10 Cloudy OVC009 63 61     93%     30.02 30.01      
Jan 21 08:53 SSE 10 10 Cloudy OVC009 62 61     96%     30 29.99 0 0  
Jan 21 08:44 SSE 11 10 Cloudy BKN009 OVC016 62 61     96%     30.01   0    
Jan 21 08:32 SSE 11 10 Cloudy OVC011 62 61     96%     30   0    
Jan 21 07:53 SSE 13 10 Cloudy OVC009 62 61     96%     29.99 29.98      
Jan 21 06:53 SSE 13 10 Cloudy OVC009 62 60     93%     29.99 29.98      
Jan 21 06:43 S 9 10 Cloudy BKN009 OVC013 61 60     97%     29.99        
Jan 21 05:53 SSE 10 10 Cloudy OVC011 62 61     96%     29.98 29.97     0
Jan 21 05:18 S 13 10 Cloudy BKN013 OVC020 62 61     96%     29.99        
Jan 21 04:53 S 10 10 Cloudy FEW008 OVC015 62 61     96%     29.99 29.98      
Jan 21 04:25 S 10 10 Cloudy SCT009 OVC018 61 60     97%     29.99        
Jan 21 03:53 S 13 10 Cloudy BKN009 OVC012 61 61     100%     29.99 29.98 0    
Jan 21 02:53 S 11 9 Cloudy OVC006 61 61     100%     30 29.99 0 0  
Jan 21 01:53 S 11 10 Cloudy BKN007 BKN012 OVC039 61 60     97%     30.01 30 0    
Jan 21 00:53 S 10 10 Cloudy OVC008 61 60     97%     30.01 30      
Jan 21 00:30 S 10 10 Cloudy OVC008 61 60     97%     30.01        
Jan 21 00:11 S 13 10 Cloudy OVC010 61 60     97%     30        
Jan 20 23:53 S 11 10 Cloudy OVC009 61 60     97%     30 29.99      
Jan 20 23:04 S 13 10 Cloudy OVC009 61 60     97%     30.01        
Jan 20 22:53 S 13 10 Cloudy OVC010 61 59     93%     30.01 30      
Jan 20 21:53 S 13 10 Cloudy OVC011 61 59     93%     30.01 30.01      
Jan 20 21:30 SSE 14 10 Cloudy OVC013 61 59     93%     30.01        
Jan 20 20:53 SSE 13 10 Cloudy OVC016 60 58     93%       30.01      
Jan 20 20:43 SSE 13 10 Mostly Cloudy BKN016 BKN048 60 58     93%              
Jan 20 19:53 SSE 8 10 Mostly Cloudy BKN036 59 57     93%       30.01      
Jan 20 18:53 SSE 9 10 Mostly Cloudy SCT041 BKN049 60 57     90%     30.02 30.01      
Jan 20 17:53 SSE 8 10 Cloudy OVC036 62 57     84%     30.02 30.01      
Jan 20 16:53 S 9 10 Cloudy OVC038 62 57     84%     30.01 30.01      
Jan 20 16:27 SSE 9 10 Cloudy FEW021 SCT027 OVC035 62 57     84%     30.01        
Jan 20 15:53 S 7 10 Cloudy BKN019 OVC026 61 56     83%     30.01 30      
Jan 20 14:53 S 9 10 Cloudy OVC015 61 55     81%     30.01 30.01      
Jan 20 14:42 S 11 10 Cloudy OVC015 60 55     83%     30.01        
Jan 20 13:53 S 11 10 Cloudy OVC013 59 54     83%     30.02 30.02      
Jan 20 13:11 S 15 10 Cloudy OVC014 59 53     81%     30.04        
Jan 20 13:00 S 11 10 Cloudy OVC015 59 53     81%     30.05        
Jan 20 12:53 S 11 10 Cloudy OVC014 58 52     81%     30.05 30.04      
Jan 20 11:53 S 10 10 Cloudy OVC014 57 50     77%       30.08      
Jan 20 11:37 SSE 11 10 Cloudy OVC015 56 50     80%              
Jan 20 10:53 S 9 10 Cloudy OVC012 56 49     77%       30.1      
Jan 20 09:53 S 10 10 Cloudy OVC010 52 46     80%     30.12 30.11      
Jan 20 09:40 S 10 10 Cloudy OVC010 51 46     83%     30.11        
Jan 20 08:53 SSE 10 10 Cloudy OVC009 49 46     90% 45   30.1 30.09      
Jan 20 07:53 SSE 8 10 Cloudy OVC009 48 43     83% 44   30.09 30.09      
Jan 20 06:53 SSE 9 10 Cloudy OVC009 47 41     80% 43   30.09 30.09      
Jan 20 05:53 SSE 8 10 Cloudy OVC009 48 40     73% 44   30.08 30.08      
Jan 20 04:53 SSE 8 10 Cloudy OVC011 48 38     68% 44   30.09 30.09      
Jan 20 03:53 S 9 10 Cloudy OVC012 48 37     66% 44   30.09 30.09      
Jan 20 02:53 S 8 10 Cloudy OVC011 47 34     60% 43   30.1 30.1      
Jan 20 02:38 S 9 10 Mostly Cloudy BKN011 46 33     60% 41   30.1        
Jan 20 01:53 S 9 10 Partly Cloudy FEW015 SCT020 47 33     58% 43   30.1 30.1      
Jan 20 01:48 S 9 10 Partly Cloudy FEW015 SCT020 46 34     61% 42   30.1        
Jan 20 01:27 S 10 10 Cloudy OVC015 47 32     56% 42   30.11        
Jan 20 01:07 S 11 10 Cloudy OVC013 48 31     51% 43   30.12        
Jan 20 00:53 S 9 10 Cloudy OVC015 48 31     51% 44   30.12 30.12      
Jan 19 23:53 S 9 10 Cloudy BKN017 OVC065 48 28     46% 44   30.13 30.13      
Jan 19 22:53 S 7 10 Cloudy BKN047 OVC055 48 27     44% 45   30.14 30.14      
Jan 19 21:53 S 10 10 Cloudy OVC050 49 26     41% 45   30.13 30.14      
Jan 19 20:53 S 7 10 Cloudy FEW040 OVC050 49 25     39% 46   30.13 30.13      
Jan 19 19:53 SSE 8 10 Cloudy OVC039 48 26     42% 44   30.12 30.12      
Jan 19 18:53 SSE 5 10 Cloudy OVC042 47 27     46% 45   30.12 30.12      
Jan 19 17:53 E 3 10 Cloudy OVC030 48 25     40% 47   30.12 30.12      
Jan 19 16:53 S 7 10 Cloudy FEW032 OVC040 49 23     36% 46   30.12 30.12      
Jan 19 16:00 S 8 10 Cloudy SCT028 OVC041 49 24     37% 45   30.14        
Jan 19 15:53 S 9 10 Cloudy BKN028 OVC039 49 25     39% 45   30.14 30.14      
Jan 19 15:04 SSW 9 10 Cloudy FEW029 OVC040 50 24     36% 46   30.15        
Jan 19 14:53 SSW 9 10 Cloudy BKN029 OVC040 49 24     37% 45   30.16 30.16      
Jan 19 13:53 SSW 9 10 Cloudy SCT030 OVC040 50 21     32% 46   30.17 30.17      
Jan 19 12:53 SSW 10 10 Cloudy SCT028 SCT033 OVC039 48 20     33% 43   30.19 30.19      
Jan 19 12:18 SW 10 10 Cloudy SCT029 OVC039 48 23     37% 43   30.22        
Jan 19 12:09 S 8 10 Cloudy BKN029 OVC038 47 22     37% 43   30.23        
Jan 19 11:53 SSW 10 10 Cloudy FEW027 OVC038 47 22     37% 42   30.24 30.24      
Jan 19 10:53 SSW 9 10 Cloudy OVC041 44 19     36% 39   30.27 30.27      
Jan 19 08:53 SSW 9 10 Cloudy OVC030 39 20     46% 33   30.27 30.27      
Jan 19 07:53 SSW 10 10 Cloudy OVC033 38 19     46% 31   30.27 30.27      
Jan 19 06:53 S 9 10 Cloudy BKN037 OVC048 37 19     48% 30   30.26 30.26      
Jan 19 05:53 SSW 7 10 Cloudy BKN036 OVC048 37 20     50% 32   30.27 30.27      
Jan 19 04:53 SSW 8 10 Cloudy BKN038 OVC047 36 20     52% 30   30.27 30.28      
Jan 19 03:53 S 6 10 Cloudy BKN040 OVC047 35 20     54% 30   30.29 30.29      
Jan 19 02:53 SSW 7 10 Cloudy OVC042 35 19     52% 29   30.3 30.31      
Jan 19 01:53 S 8 10 Partly Cloudy SCT050 33 18     53% 26   30.31 30.32      
Jan 19 00:53 SW 6 10 Clear CLR 32 18     56% 26   30.34 30.34      
Jan 18 23:53 S 8 10 Cloudy OVC050 34 16     47% 27   30.35 30.35      
Jan 18 22:53 S 6 10 Cloudy OVC050 33 16     49% 28   30.36 30.36      
Jan 18 21:53 S 9 10 Clear CLR 33 16     49% 25   30.36 30.37      
Jan 18 19:53 S 8 10 Clear CLR 34 16     47% 27   30.37 30.38      
Jan 18 18:53 SSE 8 10 Clear CLR 32 18     56% 25   30.38 30.39      
Jan 18 17:53 SE 7 10 Clear CLR 34 17     50% 28   30.37 30.38      
Jan 18 16:53 ENE 3 10 Clear CLR 39 17     41% 37   30.38 30.39      
Jan 18 16:10 SSE 5 10 Clear CLR 40 15     36% 37   30.4        
Jan 18 15:53 SE 8 10 Clear CLR 41 12     30% 36   30.4 30.41      
Jan 18 14:53 SSE 6 10 Clear CLR 40 11     30% 36   30.41 30.42      
Jan 18 13:53 Calm 10 Clear CLR 39 10     30%     30.43 30.44      
Jan 18 12:53 5 10 Clear CLR 36 13     38% 32   30.48 30.49      
Jan 18 11:53 3 10 Clear CLR 33 13     43% 30     30.55      
Jan 18 10:53 SW 6 10 Clear CLR 30 15     53% 24   30.58 30.59      
Jan 18 09:53 SW 10 10 Clear CLR 27 15     60% 17   30.59 30.6      
Jun 12 06:28 SE 5 8 Cloudy SCT008 OVC028 74 74     100%   76 29.98        
Jun 11 20:53 SSE 8 10 Mostly Cloudy FEW043 BKN060 79 73     82%   82 29.96 29.94      
Jun 11 10:53 S 9 10 Clear CLR 82 67     60%   85 30.01 29.99      
Jun 11 03:53 S 8 10 Clear CLR 72 69     91%   73 29.96 29.94      
Jun 10 20:53 SE 5 10 Clear CLR 75 65     71%   76 29.91 29.9      
Jun 10 18:53 SSE 9 10 Clear CLR 82 62     51%   83 29.91 29.89      
Jun 10 14:53 S 11 10 Mostly Clear FEW048 83 64     53%   84 29.95 29.93      
Jun 09 18:53 ESE 3 10 Mostly Clear FEW055 79 61     54%   79 29.89 29.87      
Jun 06 06:15 NNE 5 10 Partly Cloudy FEW008 SCT023 69 69     100%     29.81        
Jun 06 02:32 NNE 3 10 Cloudy SCT010 OVC016 70 70     100%     29.8        
Jun 05 20:22 ENE 6 10 Mostly Cloudy SCT016 BKN022 BKN030 74 72     94%   75 29.76        
Jun 05 17:53 N 10 10 Mostly Clear FEW036 82 70     67%   86 29.72 29.71